This is the latest recevied weather packets stored in our database for station/object K7LDN-13. If no packets are shown the sender has not sent any weather packets the latest 10 day(s).
| Time | Temp. | Humidity | Pressure | Rain* | Wind** | Luminosity | Snow |
|---|---|---|---|---|---|---|---|
| 1778078301 | 10° C | 44% | 1020.1 hPa | 0 mm | - | 343 W/m² | - |
| 1778077998 | 10° C | 45% | 1020.3 hPa | 0 mm | - | 322 W/m² | - |
| 1778077696 | 10° C | 45% | 1020.3 hPa | 0 mm | - | 322 W/m² | - |
| 1778077394 | 10° C | 46% | 1020.3 hPa | 0 mm | - | 308 W/m² | - |
| 1778077092 | 10° C | 47% | 1020.4 hPa | 0 mm | - | 292 W/m² | - |
| 1778076790 | 10° C | 47% | 1020.3 hPa | 0 mm | - | 276 W/m² | - |
| 1778076487 | 10° C | 48% | 1020.1 hPa | 0 mm | - | 253 W/m² | - |
| 1778076184 | 9.44° C | 46% | 1020.2 hPa | 0 mm | - | 230 W/m² | - |
| 1778075881 | 9.44° C | 47% | 1019.9 hPa | 0 mm | - | 208 W/m² | - |
| 1778075577 | 9.44° C | 48% | 1020.1 hPa | 0 mm | - | 63 W/m² | - |
| 1778075274 | 9.44° C | 51% | 1019.9 hPa | 0 mm | - | 162 W/m² | - |
| 1778074970 | 9.44° C | 52% | 1020.1 hPa | 0 mm | - | 144 W/m² | - |
| 1778074668 | 8.89° C | 52% | 1019.6 hPa | 0 mm | - | 128 W/m² | - |
| 1778074364 | 8.89° C | 53% | 1019.8 hPa | 0 mm | - | 114 W/m² | - |
| 1778074061 | 8.89° C | 54% | 1019.6 hPa | 0 mm | - | 101 W/m² | - |
| 1778073758 | 8.33° C | 57% | 1019.5 hPa | 0 mm | - | 89 W/m² | - |
| 1778073457 | 8.33° C | 58% | 1019.1 hPa | 0 mm | - | 81 W/m² | - |
| 1778073152 | 7.78° C | 58% | 1019.3 hPa | 0 mm | - | 76 W/m² | - |
| 1778072849 | 7.78° C | 58% | 1019.3 hPa | 0 mm | - | 71 W/m² | - |
| 1778072546 | 7.78° C | 57% | 1019.3 hPa | 0 mm | - | 59 W/m² | - |
| 1778072244 | 7.78° C | 56% | 1019.1 hPa | 0 mm | - | 48 W/m² | - |
| 1778071942 | 7.78° C | 58% | 1018.9 hPa | 0 mm | - | 40 W/m² | - |
| 1778071639 | 7.78° C | 58% | 1018.7 hPa | 0 mm | - | 31 W/m² | - |
| 1778071337 | 7.22° C | 60% | 1018.7 hPa | 0 mm | - | 17 W/m² | - |
| 1778071034 | 7.22° C | 61% | 1019 hPa | 0 mm | - | 14 W/m² | - |
* Rain latest hour (hover to see other rain measurements)
** Current wind speed in m/s (hover to see current wind gust speed)